Regional Weather Roundup
Issued by NWS

Home | Current Version | Previous Version | Text Only | Print | Product List | Glossary On
Versions: 1 2 3 4 5 6 7 8 9 10 11 12 13 14 15 16 17 18 19 20 21 22 23 24 25 26 27 28 29 30 31 32 33 34 35 36 37 38 39 40 41 42 43 44 45 46 47 48 49 50
375
ASUS43 KDTX 071010
RWRMI
MICHIGAN HOURLY REGIONAL WEATHER ROUNDUP
NATIONAL WEATHER SERVICE DETROIT/PONTIAC MI
500 AM EST SAT DEC 07 2019

NOTE: "FAIR" INDICATES FEW OR NO CLOUDS BELOW 12,000 FEET WITH NO
SIGNIFICANT WEATHER AND/OR OBSTRUCTION TO VISIBILITY.

MIZ047>049-052>055-059>063-066>070-074>076-081>083-071100-
SOUTHEAST LOWER MICHIGAN

CITY           SKY/WX    TMP DP  RH WIND       PRES   REMARKS
ADRIAN         FAIR      21  18  88 W3        30.38S
ALMA           FAIR      25  22  91 CALM      30.36F
ANN ARBOR      FAIR      21  18  88 CALM      30.37R
BAD AXE        MOCLDY    23  18  79 CALM      30.35F
CARO           FAIR      26  19  77 CALM      30.36F
DETROIT CITY   FAIR      25  15  66 CALM      30.38R
DETROIT        MOCLDY    25  16  68 CALM      30.38R
FLINT          FAIR      25  16  68 N3        30.37F
GROSSE ILE     FAIR      25  17  71 CALM      30.36S
HILLSDALE      FAIR      21  18  88 CALM      30.35R
HOWELL         FAIR      22  17  81 CALM      30.35F

CITY           SKY/WX    TMP DP  RH WIND       PRES   REMARKS
JACKSON        FAIR      24  20  84 CALM      30.37R
LAMBERTVILLE   FAIR      21  19  90 CALM      30.38S
LANSING        FAIR      23  17  78 CALM      30.37F
LAPEER         FAIR      24  17  74 CALM      30.37S
MASON          FAIR      24  18  78 CALM      30.37S
MONROE         FAIR      23  20  87 CALM      30.37S
MT. CLEMENS    MOCLDY    25  19  77 NW6       30.36R WCI  18
PONTIAC        FAIR      24  15  68 NW5       30.35R WCI  18
PORT HOPE        N/A     27  17  66 W10       30.35R WCI  17
PORT HURON     FAIR      23  19  86 CALM      30.37S
TRI CITIES     FAIR      24  17  74 CALM      30.37F
MIDLAND        MOCLDY    19  18  93 CALM      30.37S
TROY           FAIR      26  17  70 CALM      30.39R
SAGINAW HB     FAIR      25  19  80 CALM      30.37F
$$
MIZ043>046-050>051-056>058-064>065-071>073-077>080-071100-
SOUTHWEST LOWER MICHIGAN

CITY           SKY/WX    TMP DP  RH WIND       PRES   REMARKS
BATTLE CREEK   FAIR      23  19  85 S3        30.37R
BENTON HARBOR  FAIR      21  18  88 SE3       30.38S
BIG RAPIDS     CLOUDY    21  19  91 CALM      30.33F
COLDWATER      FAIR      22  18  81 CALM      30.38R
FREMONT        CLOUDY    26  22  83 CALM      30.35S
HOLLAND        CLOUDY    28  22  78 S7        30.37F WCI  21
GRAND RAPIDS   FAIR      23  20  88 S6        30.36S WCI  16
IONIA          FAIR      24  19  83 CALM      30.36R
KALAMAZOO      FAIR      24  19  81 S3        30.38R
LUDINGTON      CLOUDY    28  21  74 CALM      30.33F
MARSHALL       FAIR      25  20  83 CALM      30.38R
MOUNT PLEASANT MOCLDY    23  22  99 CALM      30.35S
MUSKEGON       CLOUDY    28  21  75 E5        30.36S WCI  23
SOUTH HAVEN    FAIR      27  22  80 CALM      30.37F
$$
MIZ016>042-071100-
NORTHERN LOWER MICHIGAN

CITY           SKY/WX    TMP DP  RH WIND       PRES   REMARKS
ALPENA         CLOUDY    20  14  77 SW3       30.34F
BEAVER ISLAND  LGT SNOW  27  24  87 SW3       30.30F
BELLAIRE       CLOUDY    26  18  71 S3        30.33F
CADILLAC       CLOUDY    15  12  90 CALM      30.28F
CHARLEVOIX     LGT SNOW  27  21  78 S5        30.31S WCI  22
FRANKFORT      CLOUDY    26  19  75 SE5       30.33S WCI  21
GAYLORD        FLURRIES  21  16  81 SW5       30.28F WCI  15
GRAYLING         N/A     21  16  81 CALM      30.30F
HARBOR SPRINGS LGT SNOW  24  19  81 NE5       30.31F WCI  18
HOUGHTON LAKE  CLOUDY    16  12  84 E5        30.32F WCI   9
MANISTEE       CLOUDY    25  20  81 CALM      30.33F
OSCODA         CLOUDY    19  15  82 SW6       30.35F WCI  11
PELLSTON       CLOUDY    20  16  84 S3        30.31F
ROGERS CITY    CLOUDY    22  16  76 S5        30.34S WCI  16
TRAVERSE CITY  CLOUDY    25  17  72 S5        30.32F WCI  19
$$
MIZ007>008-015-071100-
EASTERN UPPER MICHIGAN

CITY           SKY/WX    TMP DP  RH WIND       PRES   REMARKS
KINROSS        FAIR      17  14  88 CALM      30.30S
MACKINAC ISLAN CLOUDY    24  19  81 CALM      30.29F
NEWBERRY       FAIR      17  11  80 SW7       30.27S WCI   7
S. S. MARIE    CLOUDY    22  15  75 SW6       30.29R WCI  14
MUNISING         N/A     19  14  81 S10       30.27F WCI   7
$$
MIZ004>006-011>014-085-071100-
CENTRAL UPPER MICHIGAN

CITY           SKY/WX    TMP DP  RH WIND       PRES   REMARKS
MANISTIQUE     CLOUDY    22  20  91 CALM      30.28F
ESCANABA       LGT SNOW  16  12  86 W3        30.30F FOG
MENOMINEE      FLURRIES  21  18  88 SW3       30.31F
SAWYER-GWINN   FLURRIES  16  13  90 S8        30.22S WCI   5
$$
MIZ001>003-009>011-084-071100-
WESTERN UPPER MICHIGAN

CITY           SKY/WX    TMP DP  RH WIND       PRES   REMARKS
IRON MOUNTAIN  LGT SNOW  18  14  84 SE3       30.23F FOG
HOUGHTON       CLOUDY    17  13  84 SW8       30.17F WCI   7
COPPER HARBOR    N/A     19  14  81 VRB5      30.20F WCI  12
IRONWOOD       CLOUDY    19  15  84 S5        30.17F WCI  12
$$

ABBREVIATIONS USED IN REMARKS
   TC - TEMPERATURE IN CELSIUS
  WCI - WIND CHILL INDEX
   HX - HEAT INDEX
  VSB - VISIBILITY





USA.gov is the U.S. government's official web portal to all federal, state and local government web resources and services.